FW6519 Weather Reports


time (UTC)temp
C
wind
direction
speed
KPH
gust
KPH
rain 1hr
cm
rain 24hr
cm
rain mn
cm
humidity
%
barometer
mb
20260504033533 9 192 0.0 0.0 0.00 0.00 0.00 60 1015.6
20260504033036 9 192 0.0 1.6 0.00 0.00 0.00 60 1015.6
20260504032530 9 192 0.0 1.6 0.00 0.00 0.00 62 1015.6
20260504032029 9 192 0.0 3.2 0.00 0.00 0.00 59 1015.6
20260504031530 9 192 0.0 3.2 0.00 0.00 0.00 60 1015.6
20260504031029 9 204 0.0 0.0 0.00 0.00 0.00 59 1015.7
20260504030529 9 204 0.0 3.2 0.00 0.00 0.00 56 1015.7
20260504030032 9 204 0.0 3.2 0.00 0.00 0.00 56 1015.7
20260504025529 9 167 0.0 1.6 0.00 0.00 0.00 57 1015.6
20260504025029 9 167 0.0 4.8 0.00 0.00 0.00 56 1015.7
20260504024529 9 198 0.0 4.8 0.00 0.00 0.00 57 1015.7
20260504024028 8 180 0.0 3.2 0.00 0.00 0.00 57 1015.8
20260504023528 8 180 0.0 3.2 0.00 0.00 0.00 58 1015.8
20260504023029 8 205 0.0 0.0 0.00 0.00 0.00 60 1015.8
20260504022528 8 205 0.0 0.0 0.00 0.00 0.00 59 1015.8
20260504022030 8 205 0.0 0.0 0.00 0.00 0.00 56 1015.7
20260504021527 8 205 0.0 0.0 0.00 0.00 0.00 57 1015.8
20260504021027 8 205 0.0 0.0 0.00 0.00 0.00 57 1015.8
20260504020527 8 205 0.0 0.0 0.00 0.00 0.00 58 1015.8
20260504020028 8 205 0.0 0.0 0.00 0.00 0.00 57 1015.9
20260504015527 8 205 0.0 0.0 0.00 0.00 0.00 56 1015.8
20260504015029 8 205 0.0 0.0 0.00 0.00 0.00 57 1015.8
20260504014536 8 205 0.0 0.0 0.00 0.00 0.00 60 1015.9
20260504014027 8 205 0.0 0.0 0.00 0.00 0.00 57 1015.8
20260504013527 8 205 0.0 0.0 0.00 0.00 0.00 58 1015.7
20260504013026 8 205 0.0 0.0 0.00 0.00 0.00 56 1015.7
20260504012529 8 205 0.0 0.0 0.00 0.00 0.00 55 1015.8
20260504012025 9 205 0.0 0.0 0.00 0.00 0.00 55 1015.8
20260504011527 9 205 0.0 0.0 0.00 0.00 0.00 55 1015.8
20260504011025 9 205 0.0 0.0 0.00 0.00 0.00 54 1015.7
20260504010525 9 205 0.0 0.0 0.00 0.00 0.00 52 1015.8
20260504010027 9 205 0.0 0.0 0.00 0.00 0.00 51 1015.8
20260504005525 9 205 0.0 0.0 0.00 0.00 0.00 53 1015.7
20260504005028 10 205 0.0 0.0 0.00 0.00 0.00 50 1015.6
20260504004525 10 205 0.0 0.0 0.00 0.00 0.00 50 1015.5
20260504004025 10 205 0.0 0.0 0.00 0.00 0.00 50 1015.4
20260504003524 10 205 0.0 0.0 0.00 0.00 0.00 50 1015.5
20260504003031 10 205 0.0 0.0 0.00 0.00 0.00 49 1015.4
20260504002524 10 205 0.0 0.0 0.00 0.00 0.00 49 1015.4
20260504002024 11 205 0.0 0.0 0.00 0.00 0.00 48 1015.4
20260504001523 11 205 0.0 0.0 0.00 0.00 0.00 47 1015.4
20260504001023 11 205 0.0 0.0 0.00 0.00 0.00 48 1015.5
20260504000522 11 205 0.0 0.0 0.00 0.00 0.00 46 1015.5
20260504000023 11 205 0.0 3.2 0.00 0.00 0.00 44 1015.6
20260503235522 11 205 0.0 3.2 0.00 0.00 0.00 43 1015.5
20260503235022 11 162 0.0 3.2 0.00 0.00 0.00 44 1015.6
20260503234522 12 261 1.6 3.2 0.00 0.00 0.00 44 1015.5
20260503234021 12 213 0.0 6.4 0.00 0.00 0.00 41 1015.6
20260503233521 12 236 3.2 6.4 0.00 0.00 0.00 41 1015.6
20260503233020 12 246 0.0 6.4 0.00 0.00 0.00 42 1015.7
20260503232519 12 284 0.0 8.0 0.00 0.00 0.00 41 1015.7
20260503232019 12 251 1.6 8.0 0.00 0.00 0.00 41 1015.7
20260503231523 12 220 1.6 11.3 0.00 0.00 0.00 42 1015.7
20260503231019 12 225 1.6 8.0 0.00 0.00 0.00 39 1015.7
20260503230522 13 248 1.6 17.7 0.00 0.00 0.00 37 1015.8
20260503230018 13 239 6.4 17.7 0.00 0.00 0.00 36 1015.8
20260503225521 13 243 6.4 12.9 0.00 0.00 0.00 35 1015.9
20260503225022 13 273 4.8 8.0 0.00 0.00 0.00 36 1015.7
20260503224519 13 269 3.2 8.0 0.00 0.00 0.00 36 1015.9
20260503224019 13 188 1.6 12.9 0.00 0.00 0.00 38 1015.9
20260503223519 13 254 6.4 12.9 0.00 0.00 0.00 36 1016.0
20260503223019 13 322 4.8 12.9 0.00 0.00 0.00 36 1015.9
20260503222518 13 282 3.2 14.5 0.00 0.00 0.00 36 1015.9
20260503222017 13 186 4.8 17.7 0.00 0.00 0.00 35 1016.0
20260503221522 13 216 8.0 20.9 0.00 0.00 0.00 35 1016.0
20260503221017 13 273 9.7 20.9 0.00 0.00 0.00 35 1015.9
20260503220519 13 257 3.2 16.1 0.00 0.00 0.00 37 1015.9
20260503220022 14 270 4.8 16.1 0.00 0.00 0.00 37 1016.0
20260503215515 14 240 6.4 16.1 0.00 0.00 0.00 35 1015.9
20260503215014 14 230 8.0 14.5 0.00 0.00 0.00 35 1015.7
20260503214521 14 229 4.8 9.7 0.00 0.00 0.00 34 1015.7
20260503214014 13 296 3.2 14.5 0.00 0.00 0.00 35 1015.8
20260503213514 13 242 4.8 14.5 0.00 0.00 0.00 37 1015.8
20260503213013 13 249 1.6 14.5 0.00 0.00 0.00 35 1015.8
20260503212513 13 254 4.8 17.7 0.00 0.00 0.00 36 1015.8
20260503212011 13 233 6.4 17.7 0.00 0.00 0.00 34 1015.9
20260503211512 14 242 6.4 14.5 0.00 0.00 0.00 35 1015.9
20260503211011 14 182 0.0 9.7 0.00 0.00 0.00 36 1015.9
20260503210512 14 260 3.2 11.3 0.00 0.00 0.00 37 1016.0
20260503210110 13 268 3.2 16.1 0.00 0.00 0.00 36 1016.0
20260503205509 13 326 3.2 16.1 0.00 0.00 0.00 37 1016.1
20260503205008 13 217 6.4 14.5 0.00 0.00 0.00 40 1016.1
20260503204516 13 73 3.2 12.9 0.00 0.00 0.00 40 1016.1
20260503204006 13 219 4.8 17.7 0.00 0.00 0.00 38 1016.3
20260503203506 13 229 8.0 17.7 0.00 0.00 0.00 38 1016.4
20260503203005 13 250 6.4 16.1 0.00 0.00 0.00 38 1016.4
20260503202504 13 265 6.4 17.7 0.00 0.00 0.00 40 1016.5
20260503202003 13 241 6.4 17.7 0.00 0.00 0.00 36 1016.6
20260503201506 13 243 8.0 16.1 0.00 0.00 0.00 36 1016.5
20260503201003 13 153 6.4 14.5 0.00 0.00 0.00 39 1016.6
20260503200501 13 254 3.2 12.9 0.00 0.00 0.00 39 1016.7
20260503200006 13 202 3.2 16.1 0.00 0.00 0.00 37 1016.9
20260503195501 13 140 8.0 16.1 0.00 0.00 0.00 37 1017.2
20260503195101 13 13 4.8 16.1 0.00 0.00 0.00 39 1017.2
20260503194604 13 246 3.2 12.9 0.00 0.00 0.00 41 1017.2
20260503194100 12 70 6.4 12.9 0.00 0.00 0.00 39 1017.4
20260503193600 13 250 6.4 24.1 0.00 0.00 0.00 37 1017.4
20260503193501 13 238 8.0 24.1 0.00 0.00 0.00 36 1017.5
20260503193100 13 206 4.8 22.5 0.00 0.00 0.00 39 1017.6
20260503192558 13 198 11.3 24.1 0.00 0.00 0.00 39 1017.7
20260503192058 13 171 6.4 24.1 0.00 0.00 0.00 36 1017.7
20260503191557 12 219 3.2 14.5 0.00 0.00 0.00 40 1017.6
20260503191058 12 214 4.8 17.7 0.00 0.00 0.00 43 1017.7
20260503190557 12 180 4.8 22.5 0.00 0.00 0.00 37 1017.8
20260503190056 12 198 8.0 22.5 0.00 0.00 0.00 39 1017.9
20260503185556 12 43 6.4 14.5 0.00 0.00 0.00 37 1017.8
20260503185059 12 279 3.2 14.5 0.00 0.00 0.00 37 1017.9
20260503184604 12 185 4.8 16.1 0.00 0.00 0.00 43 1018.1
20260503184055 12 164 3.2 25.7 0.00 0.00 0.00 45 1018.2
20260503183554 12 244 9.7 25.7 0.00 0.00 0.00 38 1018.3
20260503183055 12 250 6.4 17.7 0.00 0.00 0.00 41 1018.2
20260503182556 12 241 8.0 16.1 0.00 0.00 0.00 38 1018.2
20260503182052 12 187 4.8 17.7 0.00 0.00 0.00 42 1018.3
20260503181553 12 71 6.4 17.7 0.00 0.00 0.00 42 1018.4
20260503181053 11 279 1.6 16.1 0.00 0.00 0.00 43 1018.4
20260503180552 12 78 3.2 17.7 0.00 0.00 0.00 42 1018.4
20260503180104 12 232 9.7 17.7 0.00 0.00 0.00 42 1018.5
20260503175551 11 27 1.6 9.7 0.00 0.00 0.00 40 1018.5
20260503175050 11 5 3.2 16.1 0.00 0.00 0.00 42 1018.6
20260503174550 11 51 3.2 16.1 0.00 0.00 0.00 47 1018.7
20260503174052 11 91 1.6 14.5 0.00 0.00 0.00 40 1018.7
20260503173549 11 33 6.4 16.1 0.00 0.00 0.00 44 1018.7
20260503173054 11 286 4.8 16.1 0.00 0.00 0.00 45 1018.9
20260503172548 11 217 3.2 16.1 0.00 0.00 0.00 46 1018.9
20260503172046 11 219 6.4 16.1 0.00 0.00 0.00 43 1018.9
20260503171545 11 360 3.2 16.1 0.00 0.00 0.00 45 1018.9
20260503171044 10 246 1.6 12.9 0.00 0.00 0.00 44 1018.9
20260503170546 10 292 4.8 19.3 0.00 0.00 0.00 45 1019.0
20260503150530 8 208 4.8 19.3 0.00 0.00 0.00 55 1020.1
20260503131009 5 209 3.2 11.3 0.00 0.00 0.00 74 1020.0
20260503130507 5 200 3.2 11.3 0.00 0.00 0.00 76 1020.0
20260503110549 -1 42 0.0 0.0 0.00 0.00 0.00 93 1018.9
20260503081530 0 42 0.0 0.0 0.00 0.00 0.00 90 1017.6
20260503081029 0 42 0.0 0.0 0.00 0.00 0.00 90 1017.6
20260503080529 0 42 0.0 0.0 0.00 0.00 0.00 90 1017.6
20260503072522 1 42 0.0 0.0 0.00 0.00 0.00 90 1017.2
20260503072021 1 42 0.0 0.0 0.00 0.00 0.00 90 1017.2
20260503071521 1 42 0.0 0.0 0.00 0.00 0.00 90 1017.1
20260503071021 1 42 0.0 0.0 0.00 0.00 0.00 90 1017.1
20260503070520 1 42 0.0 0.0 0.00 0.00 0.00 90 1017.1
20260503055013 2 42 0.0 0.0 0.00 0.00 0.00 85 1017.0
20260503054512 2 42 0.0 0.0 0.00 0.00 0.00 85 1017.0
20260503054012 2 42 0.0 0.0 0.00 0.00 0.00 85 1017.0
20260503053513 2 42 0.0 0.0 0.00 0.00 0.00 85 1017.0
20260503053011 2 42 0.0 1.6 0.00 0.00 0.00 85 1016.9
20260503052511 2 42 0.0 1.6 0.00 0.00 0.00 85 1016.9
20260503052011 2 40 0.0 1.6 0.00 0.00 0.00 85 1016.8
20260503051511 2 38 0.0 1.6 0.00 0.00 0.00 85 1016.9
20260503051009 2 12 0.0 0.0 0.00 0.00 0.00 84 1016.9
20260503050508 2 12 0.0 0.0 0.00 0.00 0.00 84 1016.9
20260503050009 2 12 0.0 0.0 0.00 0.00 0.00 84 1016.9
20260503045509 2 12 0.0 0.0 0.00 0.00 0.00 84 1016.9
20260503045011 2 12 0.0 0.0 0.00 0.00 0.00 83 1016.9
20260503044508 2 12 0.0 0.0 0.00 0.00 0.00 83 1016.8
20260503044007 2 12 0.0 0.0 0.00 0.00 0.00 82 1016.8
20260503043506 2 12 0.0 0.0 0.00 0.00 0.00 81 1016.8
20260503043020 2 12 0.0 0.0 0.00 0.00 0.00 81 1016.8
20260503042506 2 12 0.0 0.0 0.00 0.00 0.00 80 1016.8
20260503042003 2 12 0.0 0.0 0.00 0.00 0.00 80 1016.9
20260503041502 2 12 0.0 0.0 0.00 0.00 0.00 80 1016.8
20260503041002 2 12 0.0 0.0 0.00 0.00 0.00 80 1016.8
20260503040501 3 12 0.0 1.6 0.00 0.00 0.00 79 1016.7
20260503040103 3 12 0.0 1.6 0.00 0.00 0.00 78 1016.7
20260503035559 3 12 0.0 0.0 0.00 0.00 0.00 78 1016.7
20260503035059 3 12 0.0 0.0 0.00 0.00 0.00 77 1016.8
20260503034559 3 12 0.0 0.0 0.00 0.00 0.00 77 1016.7
20260503034101 3 12 0.0 1.6 0.00 0.00 0.00 76 1016.8